date,time,DOY,Ta_1_1_1,RH_1_1_1,LWin_1_1_1,LWout_1_1_1,SWin_1_1_1,SWout_1_1_1,PPFD_1_1_1,SWC_1_1_1,Ts_1_1_1
[yyyy-mm-dd],[HH:MM],[ddd.ddd],[K],[%],[W+1m-2],[W+1m-2],[W+1m-2],[W+1m-2],[µmol+1m-2s-1],[m+3m-3],[K]
2013-07-05,00:30,186.020,291.34833333333347,77.538333333333355,-9.9600000000000009,-9999.0,0.17966666666666670,-4.0096666666666660,0.0000000000000000,-9999.0,273.15999999999991
2013-07-05,01:00,186.041,291.26433333333335,76.561333333333323,-9.8850000000000016,-9999.0,0.27799999999999997,-3.9530000000000003,0.0000000000000000,-9999.0,273.15999999999991
2013-07-05,01:30,186.062,291.04700000000014,76.893000000000001,-9999.0,-9999.0,0.15433333333333338,-4.0353333333333321,0.0000000000000000,-9999.0,273.15999999999991
2013-07-05,02:00,186.083,290.52699999999999,80.296666666666667,-9.9700000000000006,-9999.0,-1.86666666666666717E-002,-4.1683333333333330,0.0000000000000000,-9999.0,273.15999999999991
2013-07-05,02:30,186.104,290.14000000000004,81.652666666666676,-9999.0,-9999.0,0.12033333333333332,-3.9656666666666678,0.0000000000000000,-9999.0,273.15999999999991
2013-07-05,03:00,186.124,289.83900000000000,82.656666666666695,-9.9250000000000007,-9999.0,0.18666666666666665,-3.8283333333333336,0.0000000000000000,-9999.0,273.15999999999991
2013-07-05,03:30,186.145,290.02466666666675,80.908333333333331,-9999.0,-9999.0,0.29399999999999993,-3.7986666666666671,3.33333333333333322E-004,-9999.0,273.15999999999991
2013-07-05,04:00,186.166,289.97000000000003,80.969000000000008,-9999.0,-9999.0,0.44966666666666671,-3.4860000000000002,0.54000000000000015,-9999.0,273.15999999999991
2013-07-05,04:30,186.187,290.24200000000002,78.487000000000009,-9999.0,-9999.0,1.5793333333333333,2.6570000000000005,12.268000000000001,-9999.0,273.15999999999991
2013-07-05,05:00,186.208,290.51099999999991,77.137333333333331,-9999.0,-9999.0,8.9153333333333329,37.883000000000003,64.858999999999995,-9999.0,273.15999999999991
2013-07-05,05:30,186.229,290.65200000000004,77.769666666666652,-9.8457142857142834,-9999.0,21.300000000000001,100.31866666666666,167.81800000000001,-9999.0,273.15999999999991
2013-07-05,06:00,186.249,291.50866666666661,74.194666666666663,-9.7899999999999991,-9999.0,27.866666666666667,152.53666666666669,271.44899999999996,-9999.0,273.15999999999991
2013-07-05,06:30,186.270,292.41900000000004,70.920000000000016,-9.8733333333333331,-9999.0,45.369000000000014,257.07866666666666,462.57800000000003,-9999.0,273.15999999999991
2013-07-05,07:00,186.291,293.26733333333334,67.670666666666662,-9.7400000000000002,-9999.0,59.232666666666660,345.18566666666658,640.75599999999986,-9999.0,273.15999999999991
2013-07-05,07:30,186.312,294.24133333333339,63.849333333333334,-9.6584210526315779,-9999.0,74.089666666666673,440.07400000000001,838.99233333333336,-9999.0,273.15999999999991
2013-07-05,08:00,186.333,295.15600000000001,60.033666666666676,-9.1639999999999979,-9999.0,87.751666666666637,526.23466666666673,1018.1503333333332,-9999.0,273.15999999999991
2013-07-05,08:30,186.354,295.86466666666678,57.579999999999991,-8.3766666666666687,-9999.0,100.57266666666665,609.92033333333347,1195.0810000000004,-9999.0,273.15999999999991
2013-07-05,09:00,186.374,296.43666666666672,55.306666666666658,-7.7979999999999992,-9999.0,112.17533333333336,687.32899999999984,1359.6923333333332,-9999.0,273.15999999999991
2013-07-05,09:30,186.395,297.06100000000009,53.803333333333327,-7.1853333333333342,-9999.0,121.75266666666668,755.09399999999982,1507.4806666666666,-9999.0,273.15999999999991
2013-07-05,10:00,186.416,297.62099999999998,52.457999999999984,-6.8949999999999987,-9999.0,131.00800000000001,815.32266666666669,1638.9456666666667,-9999.0,273.15999999999991
2013-07-05,10:30,186.437,298.15233333333339,50.691666666666656,-6.6946666666666665,-9999.0,138.39333333333332,867.43733333333330,1752.4726666666670,-9999.0,273.15999999999991
2013-07-05,11:00,186.458,298.45700000000005,48.749666666666663,-6.6042857142857150,-9999.0,133.51766666666666,850.95399999999984,1732.7349999999997,-9999.0,273.15999999999991
2013-07-05,11:30,186.479,298.59733333333344,47.333333333333329,-6.4322222222222214,-9999.0,122.64866666666667,782.56166666666650,1597.1156666666668,-9999.0,273.15999999999991
2013-07-05,12:00,186.499,299.21066666666667,44.158333333333339,-6.6710344827586212,-9999.0,147.31333333333336,938.76866666666649,1902.9130000000005,-9999.0,273.15999999999991
2013-07-05,12:30,186.520,299.53200000000004,42.199999999999996,-6.7641379310344822,-9999.0,141.34600000000000,920.64866666666660,1881.7409999999998,-9999.0,273.15999999999991
2013-07-05,13:00,186.541,299.55533333333335,41.651666666666664,-6.4071999999999996,-9999.0,129.31399999999999,837.63333333333355,1723.8786666666665,-9999.0,273.15999999999991
2013-07-05,13:30,186.562,299.53700000000009,41.259666666666668,-6.8577777777777760,-9999.0,128.07833333333335,820.35066666666683,1691.3813333333339,-9999.0,273.15999999999991
2013-07-05,14:00,186.583,299.05700000000002,42.294333333333341,-5.7906249999999995,-9999.0,88.429999999999993,557.15899999999988,1149.7923333333335,-9999.0,273.15999999999991
2013-07-05,14:30,186.604,299.82200000000000,39.900333333333336,-6.9704000000000015,-9999.0,123.07033333333335,765.72666666666680,1566.7113333333330,-9999.0,273.15999999999991
2013-07-05,15:00,186.624,299.99600000000004,38.570000000000000,-7.6182142857142860,-9999.0,122.75499999999997,745.32733333333317,1528.1429999999998,-9999.0,273.15999999999991
2013-07-05,15:30,186.645,299.96233333333333,38.477333333333327,-8.2830000000000013,-9999.0,115.15499999999997,679.80266666666648,1391.0586666666668,-9999.0,273.15999999999991
2013-07-05,16:00,186.666,299.89800000000002,38.747333333333330,-8.7384615384615376,-9999.0,104.34666666666668,598.66933333333338,1219.2933333333335,-9999.0,273.15999999999991
2013-07-05,16:30,186.687,299.67333333333335,40.389666666666670,-9.3571428571428541,-9999.0,85.269333333333321,478.06999999999999,970.64933333333352,-9999.0,273.15999999999991
2013-07-05,17:00,186.708,299.67533333333341,40.600666666666669,-9.0357142857142865,-9999.0,81.328333333333319,440.78366666666682,878.67133333333356,-9999.0,273.15999999999991
2013-07-05,17:30,186.729,299.38266666666669,42.081000000000003,-9999.0,-9999.0,68.364333333333349,353.79533333333342,699.87333333333345,-9999.0,273.15999999999991
2013-07-05,18:00,186.749,299.05766666666665,43.147333333333336,-9999.0,-9999.0,51.521999999999998,246.65099999999998,485.56600000000003,-9999.0,273.15999999999991
2013-07-05,18:30,186.770,298.63866666666672,44.531333333333329,-9999.0,-9999.0,37.677333333333337,165.33266666666665,323.06099999999992,-9999.0,273.15999999999991
2013-07-05,19:00,186.791,298.08500000000004,46.203333333333333,-9999.0,-9999.0,21.132999999999996,85.448333333333323,170.33033333333333,-9999.0,273.15999999999991
2013-07-05,19:30,186.812,297.32499999999999,49.357333333333337,-9.6500000000000004,-9999.0,5.9653333333333327,26.537333333333333,69.396666666666675,-9999.0,273.15999999999991
2013-07-05,20:00,186.833,296.66033333333337,52.791000000000004,-9.6061111111111117,-9999.0,1.0033333333333334,1.6859999999999995,16.149333333333335,-9999.0,273.15999999999991
2013-07-05,20:30,186.854,296.04899999999998,55.856999999999999,-9.7061111111111096,-9999.0,0.18166666666666667,-3.9346666666666668,1.0170000000000003,-9999.0,273.15999999999991
2013-07-05,21:00,186.874,295.55833333333339,57.911666666666669,-9.2000000000000011,-9999.0,0.17400000000000002,-3.8493333333333344,4.66666666666666705E-003,-9999.0,273.15999999999991
2013-07-05,21:30,186.895,295.34666666666669,58.652666666666683,-9.1709999999999994,-9999.0,0.19066666666666671,-3.8453333333333330,0.0000000000000000,-9999.0,273.15999999999991
2013-07-05,22:00,186.916,295.10133333333340,59.915666666666660,-9.1456666666666688,-9999.0,0.15666666666666668,-3.5126666666666662,0.0000000000000000,-9999.0,273.15999999999991
2013-07-05,22:30,186.937,295.04166666666686,60.895666666666664,-8.4716666666666658,-9999.0,-5.33333333333333229E-002,-2.2996666666666665,6.66666666666666644E-004,-9999.0,273.15999999999991
2013-07-05,23:00,186.958,294.98866666666680,61.538333333333348,-8.4486666666666661,-9999.0,4.73333333333333384E-002,-2.9186666666666672,0.0000000000000000,-9999.0,273.15999999999991
2013-07-05,23:30,186.979,294.90466666666663,62.710666666666661,-7.9566666666666652,-9999.0,2.76666666666666658E-002,-2.5776666666666661,0.0000000000000000,-9999.0,273.15999999999991
2013-07-06,00:00,187.000,294.74766666666659,63.854999999999990,-8.4610000000000003,-9999.0,0.14166666666666669,-3.4823333333333326,0.0000000000000000,-9999.0,273.15999999999991
